#timestamp,LO_Frequency,Hit,StdDev 
1587589215.2,286047008.1,N
1587589235.0,286047010.7,Y
1587589236.0,286047010.7,P
1587589255.8,286047006.3,P
1587589275.6,286047008.8,P
1587589295.5,286047013.7,Y
1587589315.3,286047007.2,P
1587589335.1,286047010.0,P
1587589355.9,286047010.1,P
1587589375.7,286047005.1,Y
1587589395.6,286047001.1,P
1587589415.4,286047001.1,N
1587589435.2,286046998.5,N
1587589455.1,286046997.2,N
1587589456.0,286046997.2,N
1587589475.8,286047002.8,N
1587589495.6,286047003.5,N
1587589515.5,286047004.5,N
1587589535.3,286047006.7,N
1587589555.2,286047004.6,N
1587589575.9,286047006.5,N
1587589595.7,286047007.7,N
1587589615.6,286047011.5,Y
1587589635.4,286047008.4,P
1587589655.2,286047009.4,P
1587589675.1,286047013.9,P
1587589676.0,286047013.9,Y
1587589695.8,286047001.7,P
1587589715.7,286047002.5,N
1587589735.5,286047005.6,N
1587589755.3,286047007.6,N
1587589775.2,286047006.4,N
1587589795.0,286047007.8,Y
1587589795.9,286047007.8,P
1587589815.8,286047003.6,N
1587589835.6,286047003.8,N
1587589855.4,286047004.2,N
1587589875.3,286047006.0,Y
1587589895.1,286047003.7,P
1587589915.9,286047004.6,P
1587589935.7,286047009.6,P
1587589955.5,286047008.4,Y
1587589975.4,286047001.6,P
1587589995.2,286047005.2,N
1587590015.1,286047007.1,P
1587590016.0,286047007.1,Y
1587590035.8,286047004.2,P
1587590055.6,286047006.3,P
1587590075.5,286047010.2,P
1587590095.3,286047012.7,Y
1587590115.2,286047008.1,P
1587590135.9,286047008.1,P
1587590155.7,286047012.5,P
1587590175.6,286047016.1,Y
1587590195.4,286047010.3,P
1587590215.2,286047008.0,P
1587590235.1,286047007.0,P
1587590236.0,286047007.0,Y
1587590255.8,286047002.7,P
1587590275.7,286046996.8,N
1587590295.5,286046994.9,N
1587590315.3,286046998.1,N
1587590335.2,286047003.4,N
1587590355.0,286047004.9,N
1587590355.9,286047004.9,N
1587590375.8,286047008.5,N
1587590395.6,286047013.5,N
1587590415.4,286047014.3,N
1587590435.3,286047012.9,N
1587590455.1,286047012.9,N
1587590475.8,286047016.5,N
1587590495.7,286047020.1,N
1587590515.5,286047014.3,N
1587590535.4,286047019.4,N
1587590555.2,286047019.5,N
1587590575.0,286047017.9,N
1587590575.9,286047017.9,N
1587590595.8,286047020.2,N
1587590615.6,286047021.3,N
1587590635.4,286047021.2,N
1587590655.3,286047022.8,N
1587590675.1,286047019.8,N
1587590695.9,286047020.2,N
1587590715.7,286047018.5,N
1587590735.5,286047023.3,N
1587590755.4,286047023.3,N
1587590775.2,286047022.3,N
1587590795.0,286047024.0,N
1587590795.9,286047024.0,N
1587590815.8,286047024.8,N
1587590835.6,286047026.0,Y
1587590855.5,286047016.1,P
1587590875.3,286047015.5,P
1587590895.1,286047009.4,P
1587590915.9,286047009.4,Y
1587590935.7,286046996.8,P
1587590955.6,286046996.8,N
1587590975.4,286046997.9,N
1587590995.2,286047001.5,N
1587591015.1,286047004.0,N
1587591016.0,286047004.0,N
1587591035.8,286047004.2,N
1587591055.6,286047004.6,N
1587591075.5,286047008.2,N
1587591095.3,286047008.6,N
1587591115.2,286047007.7,N
1587591135.9,286047010.4,N
1587591155.7,286047012.1,N
1587591175.6,286047010.3,N
1587591195.4,286047015.3,N
1587591215.2,286047016.8,N
1587591235.1,286047017.2,N
1587591236.0,286047017.2,N
1587591255.8,286047016.6,N
1587591275.7,286047022.0,Y
1587591295.5,286047022.7,P
1587591315.3,286047023.4,P
1587591335.2,286047024.7,P
1587591355.0,286047024.1,Y
1587591355.9,286047024.1,P
1587591375.8,286047004.2,N
1587591395.6,286047001.6,N
1587591415.4,286046999.9,N
1587591435.3,286047002.3,N
1587591455.1,286047006.1,N
1587591475.8,286047003.7,N
1587591495.7,286047010.0,N
1587591515.5,286047008.4,N
1587591535.4,286047010.8,N
1587591555.2,286047006.4,N
1587591575.0,286047006.5,N
1587591575.9,286047006.5,N
1587591595.8,286047013.0,N
1587591615.6,286047021.2,Y
1587591635.5,286047015.9,P
1587591655.3,286047015.8,P
1587591675.1,286047020.3,P
1587591695.9,286047018.2,Y
1587591715.7,286047007.2,P
1587591735.5,286047003.2,N
1587591755.4,286047002.5,N
1587591775.2,286047003.7,N
1587591795.1,286047001.8,N
1587591796.0,286047001.8,N
1587591815.8,286047001.9,N
1587591835.6,286047002.1,N
1587591855.5,286047005.7,N
1587591875.3,286047009.0,N
1587591895.1,286047014.2,Y
1587591915.9,286047010.9,P
1587591935.7,286047012.6,P
1587591955.6,286047012.5,P
1587591975.4,286047014.8,Y
1587591995.2,286047001.5,P
1587592015.1,286047006.9,N
1587592016.0,286047006.9,N
1587592035.8,286047006.3,N
1587592055.6,286047006.1,N
1587592075.5,286047005.8,N
1587592095.3,286047003.0,N
1587592115.2,286047006.6,N
1587592135.9,286047007.3,Y
1587592155.7,286047000.2,P
1587592175.6,286047001.3,N
1587592195.4,286047002.2,N
1587592215.2,286047000.6,N
1587592235.1,286047002.2,N
1587592236.0,286047002.2,N
1587592255.8,286047002.3,N
1587592275.7,286047001.6,N
1587592295.5,286047002.3,N
1587592315.3,286047001.6,N
1587592335.2,286047004.5,Y
1587592355.0,286047001.7,P
1587592355.9,286047001.7,P
1587592375.8,286047001.8,P
1587592395.6,286047001.3,Y
1587592415.4,286047004.3,P
1587592435.3,286047005.8,P
1587592455.1,286047000.3,N
1587592475.9,286046998.9,N
1587592495.7,286047000.0,N
1587592515.5,286047001.3,N
1587592535.4,286047002.5,N
1587592555.2,286047001.2,N
1587592575.0,286047001.2,N
1587592576.0,286047001.2,N
1587592595.8,286046997.6,N
1587592615.6,286046998.6,N
1587592635.5,286046999.4,N
1587592655.3,286046996.8,N
1587592675.1,286047000.9,N
1587592695.9,286047001.7,N
1587592715.7,286047003.2,N
1587592735.5,286047009.2,Y
1587592755.4,286047004.6,P
1587592775.2,286047012.3,P
1587592795.1,286047011.1,N
1587592796.0,286047011.1,N
